[[{"header":{"parameterUnit":"m.s-1","parameterCategory":1,"la1":30.2991,"la2":30.254,"lo1":-89.0895,"lo2":-89.0444,"dy":0.0017,"dx":0.0017,"nx":28,"ny":28,"refTime":"2024-06-22T21:00:00:Z","depth":0,"parameterNumber":2,"parameterNumberName":"U-component_of_WINDS"},"data":[0,0,0,0,0,0,0,0,0,0,0,0,0,0,0,0,0,0,0,0,0,0,0,0,0,0,0,0,0,0,0,0,0,0,0,0,0,0,0,0,0,0,0,0,0,0,0,0,0,0,0,0,0,0,0,0,0,0,1.6666,1.6667,0,1.6735,1.6736,1.6736,1.6723,1.6722,1.672,1.6719,1.6789,1.6792,1.6795,0,0,0,0,0,0,0,0,0,0,0,0,0,1.652,1.6523,1.6666,1.6667,1.6668,1.6735,1.6736,1.6737,1.6723,1.6722,1.672,1.6719,1.6788,1.6791,1.6795,0,0,0,0,0,0,0,0,0,0,0,0,0,1.6586,1.6524,1.6666,1.6669,1.667,1.6735,1.6736,1.6737,1.6723,1.6721,1.672,1.6718,1.6787,1.6791,1.6795,1.6861,0,0,1.6809,1.6811,0,0,0,0,0,0,0,0,1.6582,1.6591,1.6668,1.6669,1.667,1.6718,1.671,1.6778,1.6724,1.6703,1.6719,1.6717,1.6767,1.6773,1.679,1.6864,1.6867,1.681,1.6812,1.6814,1.6816,0,0,0,0,0,0,0,1.6578,1.6588,1.6693,1.6669,1.667,1.6666,1.6673,1.6723,1.6744,1.6705,1.6704,1.6712,1.6767,1.6785,1.6791,1.6868,1.6809,1.6813,1.6816,1.6818,1.6997,1.6999,0,0,0,0,0,0,1.6572,1.6584,1.6691,1.6695,1.6621,1.667,1.6678,1.6705,1.6744,1.6748,1.6714,1.6711,1.6779,1.6786,1.6794,1.6871,1.6814,1.6818,1.6821,1.6995,1.6998,1.7,0,0,0,0,0,0,1.6569,1.6582,1.6688,1.664,1.6653,1.6675,1.6704,1.6707,1.6725,1.6751,1.6754,1.6729,1.6777,1.6787,1.6844,1.6873,1.6821,1.6825,1.6993,1.6996,1.6999,1.7028,0,0,0,0,0,0,1.6565,1.6581,1.6606,1.664,1.6655,1.6738,1.6706,1.671,1.6733,1.6731,1.6766,1.677,1.6777,1.6837,1.6848,1.6879,1.6828,1.699,1.6994,1.6998,1.7024,1.7031,1.7037,0,0,0,0,0,1.656,1.6612,1.6608,1.6621,1.6688,1.6739,1.6748,1.6755,1.6736,1.6761,1.6777,1.6769,1.6869,1.6843,1.6856,1.6888,1.6988,1.6993,1.6998,1.7021,1.703,1.7037,0,0,0,0,0,0,1.6581,1.6616,1.6612,1.6677,1.6705,1.6737,1.6769,1.6765,1.6799,1.6795,1.6802,1.681,1.6867,1.6884,1.6854,1.6952,1.6926,1.6933,1.6939,1.6948,1.6954,1.6948,1.6832,0,0,0,0,0,1.6593,1.6632,1.6661,1.6715,1.673,1.6747,1.677,1.6773,1.6803,1.6814,1.6835,1.6863,1.6901,1.6926,1.6962,1.7027,1.7033,1.7055,1.7062,1.7067,1.7073,1.7106,1.7116,1.7015,1.7015,1.7015,0,0,1.6618,1.6643,1.6667,1.672,1.6742,1.6782,1.6757,1.6801,1.683,1.6821,1.6875,1.6891,1.6923,1.6984,1.7011,1.6999,1.7102,1.7073,1.7077,1.708,1.7112,1.7122,1.713,1.7018,1.7018,1.7017,0,0,1.6684,1.6708,1.6754,1.6777,1.6811,1.6822,1.6833,1.6866,1.6876,1.6931,1.6924,1.6959,1.7024,1.7047,1.7067,1.7141,1.7134,1.7153,1.7187,1.722,1.7228,1.7235,1.7259,1.7268,1.7159,1.7159,1.7159,0,1.6711,1.6771,1.6779,1.6822,1.6845,1.6839,1.6886,1.6908,1.6952,1.6967,1.6953,1.7034,1.7055,1.712,1.7138,1.7155,1.7167,1.7148,1.7226,1.7233,1.724,1.7263,1.7272,1.7161,1.7161,1.716,1.716,0,1.6801,1.6843,1.6877,1.6919,1.6946,1.6991,1.7005,1.7031,1.7032,1.7044,1.7099,1.7125,1.7165,1.7181,1.7182,1.7246,1.7237,1.7224,1.7197,1.7251,1.7273,1.7282,1.7164,1.7163,1.7162,1.7162,0,0,1.6882,1.6928,1.694,1.6958,1.6995,1.7027,1.7071,1.7111,1.7132,1.7163,1.7199,1.7255,1.7243,1.7266,1.727,1.7299,1.7353,1.7282,1.7283,1.7293,1.7422,1.743,1.744,1.7349,1.7351,1.7352,1.7419,0,1.695,1.7028,1.7036,1.7105,1.7143,1.7137,1.7176,1.7202,1.7215,1.7248,1.7262,1.73,1.7283,1.7296,1.7325,1.734,1.7379,1.7336,1.7381,1.7383,1.7371,1.7452,1.746,1.7522,1.7428,1.7429,1.743,0,1.7039,1.7072,1.7145,1.7175,1.7191,1.7226,1.7262,1.7294,1.7324,1.7331,1.7356,1.7356,1.74,1.7373,1.7434,1.7404,1.7424,1.7434,1.7436,1.7439,1.7408,1.7455,1.7542,1.755,1.7444,1.7443,1.7442,0,1.7088,1.715,1.7202,1.7218,1.7255,1.7279,1.7296,1.7323,1.7346,1.7378,1.7393,1.743,1.7449,1.7477,1.7486,1.7466,1.7546,1.752,1.7552,1.7551,1.7567,1.7566,1.7656,1.7583,1.7583,1.7583,1.7582,0,1.7161,1.7206,1.7224,1.7255,1.7304,1.7313,1.7361,1.7377,1.7401,1.7435,1.7433,1.7464,1.7476,1.7509,1.7517,1.7564,1.7574,1.758,1.7581,1.7579,1.7578,1.759,1.7585,1.7585,1.7585,1.7584,1.7584,0,1.7223,1.7237,1.7293,1.7323,1.7332,1.7367,1.7393,1.7422,1.7435,1.7477,1.7488,1.7507,1.7545,1.7558,1.7605,1.761,1.7665,1.7664,1.7655,1.7655,1.7685,1.7681,1.7784,1.7798,1.7718,1.7719,1.7719,0,1.7268,1.7302,1.7336,1.7359,1.7376,1.7413,1.7436,1.7445,1.7469,1.7505,1.753,1.7569,1.76,1.7662,1.7679,1.7715,1.7713,1.7747,1.7718,1.7714,1.7711,1.7708,1.771,1.7751,1.7752,1.7753,1.7753,0,1.7346,1.7351,1.7385,1.7421,1.7448,1.7477,1.7505,1.7523,1.7537,1.7564,1.7603,1.7628,1.7675,1.7713,1.7749,1.7765,1.7761,1.7763,1.7771,1.7768,1.7761,1.7763,1.7667,1.776,1.7759,1.7759,1.7758,1.7758,1.74,1.7429,1.7457,1.7494,1.7516,1.7542,1.7571,1.7586,1.762,1.7659,1.7663,1.7705,1.7732,1.778,1.7799,1.7831,1.7821,1.7835,1.7838,1.784,1.7841,1.7758,1.7838,1.7838,1.7838,1.7838,1.7838,0,1.7475,1.7493,1.7528,1.7566,1.7595,1.7589,1.762,1.7644,1.7681,1.7707,1.7738,1.7782,1.7818,1.7839,1.7875,1.7897,1.7896,1.7906,1.7903,1.7907,1.7849,1.7837,1.7906,1.7906,1.7906,1.7906,1.7906,1.7906,1.7518,1.7567,1.7575,1.7634,1.7651,1.7693,1.771,1.7733,1.7754,1.7804,1.7834,1.7847,1.7871,1.7908,1.7941,1.7946,1.7958,1.7969,1.7972,1.7918,1.7911,1.7904,1.7893,1.7972,1.7972,1.8027,1.8027,1.8028]},{"header":{"parameterUnit":"m.s-1","parameterCategory":1,"la1":30.2991,"la2":30.254,"lo1":-89.0895,"lo2":-89.0444,"dy":0.0017,"dx":0.0017,"nx":28,"ny":28,"refTime":"2024-06-22T21:00:00:Z","depth":0,"parameterNumber":3,"parameterNumberName":"V-component_of_WINDS"},"data":[0,0,0,0,0,0,0,0,0,0,0,0,0,0,0,0,0,0,0,0,0,0,0,0,0,0,0,0,0,0,0,0,0,0,0,0,0,0,0,0,0,0,0,0,0,0,0,0,0,0,0,0,0,0,0,0,0,0,-0.4732,-0.4731,0,-0.4671,-0.467,-0.467,-0.466,-0.4661,-0.4661,-0.4662,-0.4597,-0.4595,-0.4592,0,0,0,0,0,0,0,0,0,0,0,0,0,-0.4838,-0.4837,-0.4732,-0.4731,-0.473,-0.4671,-0.467,-0.4669,-0.466,-0.4661,-0.4661,-0.4662,-0.4598,-0.4595,-0.4592,0,0,0,0,0,0,0,0,0,0,0,0,0,-0.4786,-0.4836,-0.4732,-0.4719,-0.4717,-0.4671,-0.467,-0.4669,-0.466,-0.4661,-0.4662,-0.4662,-0.4598,-0.4595,-0.4592,-0.4555,0,0,-0.4582,-0.458,0,0,0,0,0,0,0,0,-0.4789,-0.4782,-0.4721,-0.472,-0.4717,-0.4674,-0.4684,-0.4631,-0.466,-0.4681,-0.4662,-0.4663,-0.4622,-0.4616,-0.4603,-0.4551,-0.4549,-0.4581,-0.4579,-0.4578,-0.4577,0,0,0,0,0,0,0,-0.4793,-0.4785,-0.4708,-0.4721,-0.4718,-0.4715,-0.4709,-0.4674,-0.4648,-0.468,-0.4679,-0.4672,-0.4621,-0.4606,-0.4602,-0.4548,-0.4581,-0.4578,-0.4576,-0.4575,-0.4462,-0.4461,0,0,0,0,0,0,-0.4799,-0.4788,-0.471,-0.4706,-0.4756,-0.4713,-0.4705,-0.4687,-0.4648,-0.4643,-0.4671,-0.4672,-0.4612,-0.4605,-0.4599,-0.4552,-0.4578,-0.4575,-0.4573,-0.4463,-0.4462,-0.4461,0,0,0,0,0,0,-0.4802,-0.4792,-0.4712,-0.4747,-0.4736,-0.471,-0.4689,-0.4685,-0.4671,-0.4642,-0.4637,-0.4661,-0.4612,-0.4604,-0.4566,-0.455,-0.4573,-0.457,-0.4464,-0.4463,-0.4461,-0.4459,0,0,0,0,0,0,-0.4805,-0.4793,-0.4779,-0.4746,-0.4734,-0.468,-0.4689,-0.4684,-0.4666,-0.4666,-0.4631,-0.4626,-0.4612,-0.4571,-0.4562,-0.4546,-0.4567,-0.4465,-0.4464,-0.4462,-0.446,-0.4458,-0.4455,0,0,0,0,0,-0.4808,-0.478,-0.4778,-0.4769,-0.4716,-0.4679,-0.4672,-0.4657,-0.4664,-0.465,-0.4631,-0.4627,-0.4554,-0.4567,-0.4557,-0.454,-0.4466,-0.4464,-0.4462,-0.4461,-0.4458,-0.4455,0,0,0,0,0,0,-0.4811,-0.4776,-0.4773,-0.4734,-0.471,-0.4678,-0.4659,-0.4655,-0.4627,-0.4628,-0.461,-0.4603,-0.4565,-0.4549,-0.4564,-0.4501,-0.451,-0.4506,-0.4513,-0.451,-0.4507,-0.4512,-0.4565,0,0,0,0,0,-0.4807,-0.4781,-0.4751,-0.4719,-0.4707,-0.4685,-0.4669,-0.4659,-0.4633,-0.4623,-0.4601,-0.4575,-0.4546,-0.4527,-0.4499,-0.4458,-0.445,-0.4441,-0.4439,-0.4437,-0.4433,-0.441,-0.4405,-0.4454,-0.4454,-0.4454,0,0,-0.4798,-0.4776,-0.476,-0.4719,-0.4699,-0.4672,-0.4677,-0.4647,-0.4626,-0.4618,-0.4581,-0.4564,-0.4534,-0.4494,-0.4476,-0.4479,-0.4418,-0.4434,-0.4433,-0.443,-0.4407,-0.4403,-0.4399,-0.4452,-0.4452,-0.4453,0,0,-0.4768,-0.4749,-0.472,-0.47,-0.4671,-0.4656,-0.465,-0.4618,-0.4607,-0.457,-0.4563,-0.4538,-0.4488,-0.4467,-0.445,-0.4413,-0.4408,-0.4404,-0.439,-0.4368,-0.4364,-0.4361,-0.4347,-0.4342,-0.44,-0.44,-0.44,0,-0.476,-0.4719,-0.4706,-0.4676,-0.4658,-0.4651,-0.4621,-0.4602,-0.4565,-0.4552,-0.4557,-0.4495,-0.4474,-0.443,-0.4421,-0.4407,-0.4398,-0.4407,-0.4366,-0.4362,-0.4359,-0.4345,-0.434,-0.44,-0.44,-0.44,-0.44,0,-0.4711,-0.4683,-0.4663,-0.4628,-0.4607,-0.4578,-0.4559,-0.4541,-0.4533,-0.4518,-0.448,-0.4455,-0.4422,-0.4411,-0.4403,-0.4365,-0.4368,-0.437,-0.4378,-0.4354,-0.4341,-0.4336,-0.44,-0.44,-0.44,-0.44,0,0,-0.4679,-0.4638,-0.4631,-0.4614,-0.4582,-0.4559,-0.4529,-0.4497,-0.4481,-0.4456,-0.443,-0.4389,-0.439,-0.4371,-0.4361,-0.4341,-0.4313,-0.4345,-0.4344,-0.4339,-0.4268,-0.4266,-0.426,-0.431,-0.4309,-0.4308,-0.427,0,-0.4645,-0.4592,-0.4579,-0.4534,-0.4507,-0.45,-0.4474,-0.4451,-0.4436,-0.4411,-0.4395,-0.4365,-0.437,-0.4358,-0.4339,-0.432,-0.4298,-0.4323,-0.4285,-0.4284,-0.4291,-0.4254,-0.4251,-0.4217,-0.4265,-0.4264,-0.4264,0,-0.4597,-0.4571,-0.4523,-0.4494,-0.4483,-0.446,-0.4429,-0.4405,-0.4379,-0.437,-0.4348,-0.434,-0.4309,-0.432,-0.4276,-0.4293,-0.4277,-0.4265,-0.4264,-0.4258,-0.4271,-0.4246,-0.4205,-0.42,-0.4256,-0.4256,-0.4257,0,-0.4577,-0.4531,-0.4496,-0.4483,-0.4448,-0.4432,-0.4417,-0.4391,-0.4373,-0.4346,-0.4334,-0.4304,-0.4287,-0.4264,-0.4248,-0.4258,-0.4205,-0.4215,-0.4195,-0.4196,-0.4183,-0.4184,-0.4138,-0.4175,-0.4175,-0.4175,-0.4175,0,-0.4539,-0.451,-0.4487,-0.4466,-0.4433,-0.4418,-0.4386,-0.437,-0.4348,-0.4323,-0.4315,-0.4292,-0.4273,-0.4246,-0.4234,-0.4198,-0.4191,-0.4182,-0.4179,-0.4182,-0.4183,-0.417,-0.4172,-0.4174,-0.4174,-0.4174,-0.4174,0,-0.4511,-0.4495,-0.4457,-0.4427,-0.4419,-0.4396,-0.4371,-0.435,-0.4335,-0.4304,-0.4295,-0.4273,-0.4242,-0.4224,-0.4184,-0.4176,-0.4136,-0.4135,-0.4145,-0.4144,-0.4125,-0.4126,-0.4068,-0.4059,-0.4103,-0.4103,-0.4102,0,-0.4487,-0.4465,-0.4434,-0.4417,-0.4401,-0.4374,-0.4356,-0.4341,-0.4322,-0.429,-0.4272,-0.4241,-0.4215,-0.4165,-0.4145,-0.4115,-0.4112,-0.4093,-0.4107,-0.4111,-0.411,-0.4111,-0.4109,-0.409,-0.409,-0.409,-0.4089,0,-0.4446,-0.444,-0.4414,-0.4385,-0.4363,-0.434,-0.4316,-0.4303,-0.4284,-0.4263,-0.4231,-0.4211,-0.4172,-0.414,-0.4108,-0.4092,-0.4087,-0.4086,-0.4079,-0.4082,-0.4088,-0.4084,-0.4138,-0.4087,-0.4087,-0.4087,-0.4087,-0.4087,-0.4419,-0.4399,-0.4373,-0.4345,-0.4326,-0.4304,-0.4283,-0.4266,-0.424,-0.4207,-0.42,-0.4166,-0.414,-0.4097,-0.408,-0.4054,-0.4057,-0.4048,-0.4045,-0.4043,-0.4042,-0.4094,-0.4048,-0.4048,-0.4048,-0.4048,-0.4048,0,-0.4377,-0.4361,-0.4335,-0.4302,-0.428,-0.4279,-0.4253,-0.4234,-0.4205,-0.4181,-0.4156,-0.412,-0.409,-0.4067,-0.4036,-0.4019,-0.4016,-0.4011,-0.4012,-0.4008,-0.4041,-0.4049,-0.4014,-0.4014,-0.4014,-0.4014,-0.4014,-0.4014,-0.4352,-0.4318,-0.4308,-0.4264,-0.4248,-0.4215,-0.4201,-0.418,-0.4162,-0.4122,-0.4097,-0.4083,-0.406,-0.4027,-0.3999,-0.3993,-0.3982,-0.3977,-0.3971,-0.4002,-0.4006,-0.4009,-0.4016,-0.3975,-0.3975,-0.3939,-0.3939,-0.3939]}]]